カタログに戻る

YUNYAO-1 35

運用中気象SSO
NORAD 61902·PAYLOAD·🇨🇳 China
この衛星名は、まだ公式ソースで確認されていません。

打ち上げ Nov 11, 2024 から Jiuquan Satellite Launch Center

Loading…

次のパス (今後24時間)

TLE

最新Source: Space-Track

元期: Sep 14, 2026, 22:02 UTC

1 61902U 24205J   26257.91832404  .00006005  00000-0  34200-3 0  9997
2 61902  97.4060 325.7271 0012195 213.0889 146.9581 15.13117757101758

AllMySatでYUNYAO-1 35をリアルタイム追跡

Download on the App Store